Regional Weather Roundup
Issued by NWS

Home | Current Version | Previous Version | Graphics & Text | Print | Product List | Glossary On
Versions: 1 2 3 4 5 6 7 8 9 10 11 12 13 14 15 16 17 18 19 20 21 22 23 24 25 26 27 28 29 30 31 32 33 34 35 36 37 38 39 40 41 42 43 44 45 46 47 48 49 50
000
ASUS45 KABQ 280001
RWRNM
NEW MEXICO REGIONAL WEATHER ROUNDUP
NATIONAL WEATHER SERVICE ALBUQUERQUE NM
600 PM MDT TUE JUN 27 2017

NOTE: "FAIR" MEANS FEW OR NO CLOUDS BELOW 12,000 FEET AGL WITH NO
       SIGNIFICANT WEATHER OR OBSTRUCTIONS TO VISION.

      THIS PRODUCT IS RELEASED AS TWO VERSIONS.  ONE VERSION NEAR
      THE TOP OF THE HOUR CONTAINING PRELIMINARY DATA FROM ALBUQUERQUE
      AND OTHER STATIONS.  A FINAL VERSION WITH ADDITIONAL DATA IS
      ISSUED ABOUT 10 MINUTES AFTER THE HOUR.

NMZ501-503-504-510>518-280100-
NORTHWEST PLATEAU/NORTHCENTRAL MOUNTAINS

CITY           SKY/WX    TMP DP  RH WIND       PRES   REMARKS
FARMINGTON     FAIR      93  10   4 W23G30    29.90F
6HR MIN TEMP:  85; 6HR MAX TEMP:  96;

LOS ALAMOS     FAIR      86  29  13 S6        30.10F
SANTA FE       FAIR      91  34  13 W12G18    30.01F
6HR MIN TEMP:  79; 6HR MAX TEMP:  92;

TAOS           FAIR      88  28  11 W20G31    30.07F
ANGEL FIRE     FAIR      73  35  24 SW8       30.17F

$$
NMZ402-403-502-505>509-280100-
WESTCENTRAL MOUNTAINS/SOUTHWEST MOUNTAINS

CITY           SKY/WX    TMP DP  RH WIND       PRES   REMARKS
GALLUP         FAIR      89  19   7 W18G31    30.06F
6HR MIN TEMP:  87; 6HR MAX TEMP:  93;

GRANTS         FAIR      89  22   9 W16G26    30.08F
SILVER CITY    FAIR      91  38  15 W14G21    30.04F

$$
NMZ407-409-411-412-280100-
SOUTHERN DESERTS

CITY           SKY/WX    TMP DP  RH WIND       PRES   REMARKS
DEMING         FAIR      96  40  14 W5        29.93F
6HR MIN TEMP:  87; 6HR MAX TEMP:  98;

LAS CRUCES     FAIR      94  43  17 N7        29.98F
HOLLOMAN AFB   FAIR      95  46  18 W10       29.96S
ALAMOGORDO     FAIR      93  45  18 SW5       29.96S
T OR C         FAIR      84  50  30 N8        30.01S
6HR MIN TEMP:  76; 6HR MAX TEMP:  93; 6HR PCP:  0.10;


$$
NMZ519>523-280100-
CENTRAL VALLEYS/CENTRAL HIGHLANDS

CITY           SKY/WX    TMP DP  RH WIND       PRES   REMARKS
ALBUQUERQUE    FAIR      91  39  16 S20       29.95F
6HR MIN TEMP:  81; 6HR MAX TEMP:  92; 6HR PCP: TRACE;

DOUBLE EAGLE   PTSUNNY   93  43  17 S16       30.00F
MORIARTY ARPT  FAIR      90  35  14 SW15G23   30.04F
6HR MIN TEMP:  82; 6HR MAX TEMP:  94;

CLINES CORNERS FAIR      83  34  17 SW20      30.11F
6HR MIN TEMP:  78; 6HR MAX TEMP:  88; 6HR PCP: TRACE;

BELEN          NOT AVBL
SOCORRO        FAIR      80  51  36 S12G20    30.00F
6HR MIN TEMP:  67; 6HR MAX TEMP:  92; 6HR PCP:  0.53;


$$
NMZ524>526-539-540-280100-
SOUTHCENTRAL MOUNTAINS

CITY           SKY/WX    TMP DP  RH WIND       PRES   REMARKS
RUIDOSO        FAIR      77  48  36 SW12      30.18S

$$
NMZ527>531-280100-
NORTHEAST HIGHLANDS/NORTHEAST PLAINS

CITY           SKY/WX    TMP DP  RH WIND       PRES   REMARKS
LAS VEGAS      LGT RAIN  87  33  14 W29G37    30.04F
6HR MIN TEMP:  77; 6HR MAX TEMP:  89; 6HR PCP: TRACE;

RATON          FAIR      89  36  15 SW20G33   29.94F
6HR MIN TEMP:  74; 6HR MAX TEMP:  89; 6HR PCP:  0.02;

CLAYTON        TSTM      75  49  39 W23G36    29.95S
6HR MIN TEMP:  75; 6HR MAX TEMP:  92; 6HR PCP: TRACE;


$$
NMZ532>537-280100-
EASTCENTRAL PLAINS

CITY           SKY/WX    TMP DP  RH WIND       PRES   REMARKS
SANTA ROSA     FAIR      94  44  17 W6G22     29.88F
TUCUMCARI      FAIR      91  50  24 S13G22    29.86S
6HR MIN TEMP:  91; 6HR MAX TEMP:  97;

CANNON AFB     FAIR      90  48  23 S20       29.95F
6HR MIN TEMP:  83; 6HR MAX TEMP:  92;

CLOVIS AIRPORT NOT AVBL

$$
NMZ028-029-538-280100-
SOUTHEAST PLAINS

CITY           SKY/WX    TMP DP  RH WIND       PRES   REMARKS
ROSWELL        FAIR      95  45  17 S17G25    29.90F
6HR MIN TEMP:  87; 6HR MAX TEMP:  97;

ARTESIA        FAIR      93  52  24 SE23      29.90F
CARLSBAD       FAIR      94  50  22 SE14      29.89F
6HR MIN TEMP:  83; 6HR MAX TEMP:  95;

HOBBS          SUNNY     88  46  23 SE14G20   29.97F


$$




USA.gov is the U.S. government's official web portal to all federal, state and local government web resources and services.